Regional Weather Roundup
Issued by NWS

Home | Current Version | Previous Version | Graphics & Text | Print | Product List | Glossary On
Versions: 1 2 3 4 5 6 7 8 9 10 11 12 13 14 15 16 17 18 19 20 21 22 23 24 25 26 27 28 29 30 31 32 33 34 35 36 37 38 39 40 41 42 43 44 45 46 47 48 49 50
000
ASUS43 KIND 271559
RWRIN

WEATHER ROUNDUP FOR INDIANA
NATIONAL WEATHER SERVICE INDIANAPOLIS IN
1100 AM EST THU NOV 27 2014

NOTE: "FAIR" INDICATES FEW OR NO CLOUDS BELOW 12,000 FEET WITH NO
SIGNIFICANT WEATHER AND/OR OBSTRUCTIONS TO VISIBILITY.

* - STATION DOES NOT REPORT WEATHER SUCH AS PRECIPITATION OR FOG.

+ - STATION NOT QUALITY CONTROLLED BY THE NATIONAL WEATHER SERVICE.
    USE DATA WITH CAUTION...ESPECIALLY DEWPOINT AND RELATIVE
    HUMIDITY OBSERVATIONS.

INZ001>003-010>013-019-020-271700-
NORTHWEST INDIANA

CITY           SKY/WX    TMP DP  RH WIND       PRES   REMARKS
GARY /AIRPORT/ PTSUNNY   30  21  69 NW9       30.33R WCI  22
VALPARAISO     NOT AVBL

$$

LMZ046-743>745-271700-
SOUTHERN LAKE MICHIGAN

STATION/POSITION TIME  TEMP WIND        PRES
                       AIR  DIR/SP/G
                 (UTC) (F)  (DEG/KT/KT) (MB)
MICHIGAN CITY    1500   29  270/ 19/ 22   N/A

$$

INZ004-005-014>016-021>024-271700-
NORTH CENTRAL INDIANA

CITY           SKY/WX    TMP DP  RH WIND       PRES   REMARKS
GOSHEN         LGT SNOW  30  28  92 W8        30.24R VSB 1   WCI  22
SOUTH BEND     SNOW      30  28  92 W8        30.26R VSB 1/2 WCI  22

$$

INZ006>009-017-018-025>027-271700-
NORTHEAST INDIANA

CITY           SKY/WX    TMP DP  RH WIND       PRES   REMARKS
ANGOLA *+      PTSUNNY   30  23  74 W7        30.21R WCI  23
FORT WAYNE     CLOUDY    30  25  81 W14       30.25R WCI  19

$$

INZ028-029-035-036-043>045-051>053-271700-
WEST CENTRAL INDIANA

CITY           SKY/WX    TMP DP  RH WIND       PRES   REMARKS
GREENCASTLE +  LGT SNOW  30  21  69 NW8       30.34R WCI  23
LAFAYETTE      CLOUDY    26  21  81 W9        30.34R WCI  17
TERRE HAUTE    CLOUDY    28  20  71 NW15      30.39R WCI  16

$$

INZ030>032-037>040-046>048-054>057-064-065-271700-
CENTRAL INDIANA

CITY           SKY/WX    TMP DP  RH WIND       PRES   REMARKS
COLUMBUS       CLOUDY    30  25  80 W12       30.34R WCI  21
INDIANAPOLIS   LGT SNOW  29  23  78 W12       30.32R FOG     WCI  19
-EAGLE CREEK   LGT SNOW  28  24  85 NW15      30.31R FOG     WCI  16
KOKOMO *+      CLOUDY    28  25  86 W13       30.29R WCI  18
MT COMFORT *+  CLOUDY    30  25  80 W10       30.30R WCI  21
SHELBYVILLE    LGT SNOW  30  25  81 W10       30.31R WCI  21

$$

INZ033-034-041-042-049-050-058-059-271700-
EAST CENTRAL INDIANA

CITY           SKY/WX    TMP DP  RH WIND       PRES   REMARKS
MUNCIE         LGT SNOW  29  25  85 W12       30.27R FOG     WCI  19

$$

INZ060-061-067>069-081>083-085>088-271700-
SOUTHWEST INDIANA

CITY           SKY/WX    TMP DP  RH WIND       PRES   REMARKS
EVANSVILLE     MOSUNNY   30  22  72 NW9       30.45R WCI  22
HUNTINGBURG *+ CLOUDY    28  21  74 NW10      30.42R WCI  19

$$

INZ062-063-066-070>080-084-089>092-271700-
SOUTH CENTRAL AND SOUTHEAST INDIANA

CITY           SKY/WX    TMP DP  RH WIND       PRES   REMARKS
BLOOMINGTON    CLOUDY    28  22  78 VRB7      30.35R WCI  21
SEYMOUR +      CLOUDY    34  23  64 W9        30.35  WCI  26

$$




USA.gov is the U.S. government's official web portal to all federal, state and local government web resources and services.